Wind_Speed
15 16 17 17 18 18 19 20 18 17 16 16 15 16 15 15 16 15 15 15 14 14 16 17 18 18 18 18 19 19 20 21 22 22 22 22 22 22 23 24 25 25 25 25
13 14 15 17 18 18 18 17 17 16 15 16 16 17 17 16 15 16 16 16 17 16 16 18 18 18 17 17 18 19 20 21 22 21 22 23 23 24 24 24 25 25 25 25
12 12 15 16 16 16 16 16 14 14 13 15 17 18 18 17 17 17 17 17 17 17 18 19 20 19 18 17 19 19 20 21 21 21 22 24 24 25 26 26 26 26 25 25
9 10 12 13 14 15 14 13 14 13 14 16 18 19 19 18 18 18 17 17 17 17 19 19 18 18 17 18 19 19 20 20 21 21 22 24 24 25 26 26 26 26 26 26
8 9 10 11 11 12 12 12 13 14 15 16 18 20 20 19 18 18 18 18 19 19 19 19 19 18 18 19 19 19 19 20 21 22 23 24 25 25 25 26 26 26 26 26
7 8 9 10 10 11 11 12 13 14 16 18 18 20 20 19 20 20 19 20 20 19 20 20 19 18 19 19 19 20 20 21 22 23 23 24 24 25 26 26 26 26 26 27
8 8 8 10 11 12 13 13 14 15 17 17 17 19 18 18 18 18 19 20 20 20 21 20 19 19 18 19 20 20 22 22 22 23 23 23 24 24 25 26 26 26 26 27
7 7 7 10 11 12 13 14 14 15 16 16 18 19 18 17 18 18 19 20 20 20 19 18 18 18 19 20 21 22 21 21 22 23 23 24 25 25 25 25 26 26 26 27
7 8 8 10 11 11 11 13 14 16 16 16 16 17 16 15 16 17 19 19 18 18 17 17 19 20 20 21 22 21 20 21 22 23 23 24 24 24 25 25 25 25 25 26
8 9 10 11 12 12 13 13 14 17 17 18 17 17 17 16 15 16 15 15 16 16 17 18 19 20 20 21 20 21 22 21 22 22 23 23 24 25 25 25 25 25 25 26
9 10 10 11 13 14 15 16 17 17 19 19 19 17 17 17 17 17 17 17 17 16 17 17 18 19 20 20 20 21 20 20 21 22 23 23 24 25 24 24 25 25 25 25
10 12 12 12 13 15 16 18 18 18 19 19 19 17 17 18 19 18 17 17 15 15 16 17 19 20 20 20 20 19 19 20 20 21 22 23 24 24 24 24 24 24 24 23
12 13 14 13 14 15 16 16 17 17 18 18 19 18 17 18 18 18 16 16 16 16 16 17 19 19 19 20 20 19 20 20 21 21 22 23 23 23 23 23 23 22 22 21
12 12 13 14 14 14 15 16 16 17 17 18 18 18 17 17 17 17 16 17 17 16 16 17 18 19 19 19 19 19 19 20 20 21 21 21 21 21 21 21 21 21 20 20
11 12 12 14 14 14 14 15 16 17 16 16 15 15 15 14 15 16 17 17 16 16 17 18 19 19 18 18 18 18 18 19 19 20 20 19 19 19 19 19 19 18 18 18
12 12 13 13 14 14 14 13 14 14 14 14 15 14 14 15 16 16 15 15 15 15 16 16 17 18 17 16 16 16 18 17 17 18 18 18 17 17 17 17 17 17 17 16
13 13 13 13 13 14 14 13 13 13 13 14 15 15 15 15 16 15 14 14 13 13 14 15 15 15 15 15 15 16 16 15 15 16 16 16 15 15 16 16 16 16 16 15
13 13 13 13 14 14 13 13 12 12 11 13 13 13 14 14 14 14 13 13 13 13 13 13 13 13 13 13 14 14 14 13 14 14 14 14 14 14 14 15 15 14 14 14
12 12 12 13 13 13 12 12 12 12 11 11 12 13 14 14 14 13 12 12 12 12 12 12 11 12 12 12 11 11 11 11 12 13 13 13 13 14 14 14 14 14 14 13
11 11 11 12 12 12 11 11 12 12 10 11 11 12 12 12 12 12 11 11 11 11 11 11 10 9 8 8 10 11 11 11 12 12 13 13 13 13 13 13 13 13 13 13
10 10 11 11 11 11 10 9 10 11 11 11 11 10 10 10 9 9 9 9 9 10 10 10 9 8 9 9 10 11 11 11 11 12 12 13 12 12 12 12 12 12 12 12
10 10 10 11 11 10 9 9 9 9 9 9 9 8 8 7 8 7 7 8 8 8 8 7 7 7 8 9 9 10 10 11 11 11 11 12 11 11 11 11 11 11 12 12
10 10 10 10 9 9 8 8 7 8 8 8 8 7 7 7 7 6 6 7 7 6 6 5 6 6 7 7 8 9 10 10 11 11 11 11 11 10 10 10 10 11 12 12
9 9 9 9 8 8 8 8 7 6 7 6 6 5 5 4 4 4 5 6 6 6 5 4 5 5 6 7 8 9 9 10 10 11 11 11 10 10 9 9 9 10 11 11
8 8 7 7 7 6 6 7 6 6 5 4 4 4 4 3 3 4 5 6 6 5 4 4 4 5 6 6 7 8 8 9 10 10 10 11 10 10 10 9 9 9 10 10
7 7 7 5 5 5 5 4 5 4 3 2 2 2 2 3 4 5 5 5 5 5 5 4 5 5 6 6 7 7 8 9 9 9 10 10 10 10 10 10 9 9 9 10
Wind_Direction
207 205 204 205 212 215 215 217 220 226 235 249 260 269 274 271 274 279 282 281 279 285 290 289 288 286 283 283 285 286 289 292 293 292 289 290 292 293 292 290 287 287 288 286
195 198 202 206 209 211 214 217 221 231 243 252 258 265 270 270 275 278 278 281 284 284 291 290 287 286 284 284 286 288 287 290 292 293 292 292 294 294 292 292 291 289 288 286
194 199 205 209 210 213 216 220 224 229 240 248 257 258 261 262 269 274 276 280 285 286 288 289 288 286 283 284 286 288 288 289 290 292 294 294 295 295 293 293 293 292 291 289
200 205 206 208 211 217 221 226 226 227 236 244 254 259 259 264 268 274 278 284 284 284 287 286 288 291 287 286 285 287 287 289 290 293 295 295 296 295 295 293 292 292 292 292
206 207 207 209 210 220 227 223 228 230 235 243 249 262 268 271 272 278 283 287 287 284 285 286 290 290 288 288 289 291 290 291 293 293 294 294 294 295 295 294 293 293 291 291
198 211 211 208 209 216 227 231 231 232 237 245 251 263 269 270 273 278 283 284 283 287 289 286 287 291 290 292 293 295 294 295 295 294 293 293 293 294 294 293 293 292 291 291
195 204 212 218 221 224 229 237 240 239 243 250 256 261 266 270 272 278 285 286 285 290 288 285 286 291 290 294 294 295 295 294 294 293 292 293 294 294 294 294 294 293 293 292
202 209 218 217 225 233 235 243 248 252 252 254 258 264 272 275 274 278 282 284 283 287 285 282 284 287 291 294 295 296 294 294 293 293 293 293 294 294 295 297 297 296 296 295
223 218 223 223 229 240 245 250 254 258 262 266 268 271 276 279 281 283 284 285 284 286 287 286 285 291 293 295 296 297 297 297 295 295 294 297 295 297 299 300 301 300 299 298
250 240 234 237 239 242 247 250 254 258 264 270 271 276 281 285 288 289 285 286 291 291 293 290 292 292 294 297 298 299 298 297 296 296 298 300 301 301 302 302 302 301 300 299
262 262 249 242 243 245 249 255 261 266 267 271 275 280 285 288 290 291 292 293 292 290 295 298 300 298 299 299 299 300 299 297 298 299 301 302 303 303 304 304 303 302 301 300
263 265 264 256 251 252 252 256 259 266 271 272 278 285 287 293 293 293 295 298 295 295 299 299 300 301 302 301 303 301 300 301 301 302 303 304 305 305 305 305 305 304 303 303
260 264 265 261 257 256 258 259 264 270 271 274 278 286 289 292 293 294 295 299 297 297 298 298 301 304 304 303 301 301 300 301 303 304 304 304 306 307 308 308 307 306 306 307
260 263 263 262 263 261 260 260 267 271 273 277 282 287 289 288 290 291 295 298 299 298 300 303 305 306 305 303 302 302 302 303 304 305 306 306 306 308 310 310 311 310 309 309
261 263 263 261 263 262 262 261 263 268 274 279 286 287 288 290 291 293 295 296 298 299 301 303 304 305 302 302 302 301 303 304 307 309 310 309 310 312 314 315 316 317 314 312
263 262 259 261 264 268 265 260 260 262 267 278 280 286 288 290 292 294 294 295 297 299 300 304 305 305 305 305 305 305 307 308 311 314 315 315 316 318 320 321 321 321 321 320
265 265 265 265 266 267 263 263 264 268 272 278 281 285 286 288 291 294 293 297 299 302 307 309 309 309 311 312 312 312 312 312 315 317 319 321 323 324 325 324 324 325 325 326
267 269 269 270 269 267 268 265 268 273 277 282 283 287 291 293 293 292 294 299 303 308 312 313 313 313 314 314 315 317 316 318 322 324 325 325 323 324 326 328 330 330 330 331
264 267 268 269 269 271 268 270 273 279 284 287 287 288 292 295 296 297 299 300 302 307 313 315 317 319 317 316 319 323 324 328 331 331 329 329 330 329 330 332 334 335 334 334
262 265 266 268 274 278 276 273 277 284 287 292 292 294 295 296 295 295 297 299 300 306 311 314 315 319 324 327 331 334 334 332 332 333 331 332 334 335 335 338 340 341 341 342
265 270 270 271 277 279 278 275 280 288 297 296 298 301 302 299 295 291 292 299 304 308 311 315 317 318 322 326 333 337 339 336 334 333 334 336 337 339 341 342 346 349 349 351
270 274 273 275 278 283 283 284 289 295 296 299 301 304 307 312 310 303 303 309 312 314 315 319 322 321 323 328 339 344 345 346 344 342 344 346 347 347 348 352 355 358 360 2
273 280 281 283 285 288 289 292 293 294 297 301 304 303 306 312 315 309 316 325 327 323 322 327 330 327 331 342 347 349 350 351 351 351 351 353 353 354 357 2 6 8 7 7
276 278 282 283 282 282 288 296 299 301 303 301 306 310 314 317 321 328 333 330 330 329 329 331 334 333 336 343 350 353 353 354 354 355 354 355 357 359 359 3 8 9 8 10
277 274 276 278 277 286 296 298 300 301 302 299 313 323 327 332 336 339 337 346 349 352 354 344 335 335 338 344 350 354 357 356 357 357 358 2 4 5 7 7 7 6 5 7
272 276 277 277 286 294 301 303 313 307 304 310 311 328 347 345 353 345 342 345 353 354 349 345 346 347 348 349 352 353 354 356 359 360 1 4 8 12 15 13 8 4 6 9
Height
5843 5846 5848 5850 5853 5855 5856 5857 5859 5860 5862 5863 5864 5866 5867 5867 5867 5867 5867 5867 5868 5867 5866 5865 5864 5863 5862 5861 5860 5858 5857 5855 5853 5852 5850 5849 5847 5844 5842 5839 5837 5835 5833 5831
5843 5844 5846 5848 5850 5851 5853 5854 5855 5857 5858 5860 5862 5863 5864 5864 5864 5864 5864 5864 5864 5864 5863 5863 5861 5859 5857 5856 5855 5854 5852 5851 5849 5847 5845 5844 5842 5839 5836 5834 5831 5829 5827 5825
5840 5843 5843 5845 5847 5849 5851 5852 5854 5854 5855 5857 5858 5859 5860 5860 5860 5860 5860 5860 5860 5860 5859 5859 5857 5855 5853 5852 5850 5849 5847 5845 5844 5842 5840 5839 5836 5833 5831 5828 5825 5823 5821 5818
5838 5840 5841 5843 5845 5847 5848 5850 5851 5852 5854 5854 5856 5855 5856 5856 5856 5856 5856 5856 5855 5855 5854 5853 5852 5851 5849 5847 5845 5844 5842 5841 5839 5837 5835 5833 5830 5828 5825 5822 5820 5817 5814 5812
5837 5838 5839 5841 5843 5844 5846 5847 5848 5850 5851 5852 5852 5852 5852 5852 5852 5852 5852 5851 5851 5850 5849 5848 5847 5846 5844 5843 5840 5839 5837 5835 5834 5831 5829 5827 5825 5822 5819 5816 5813 5810 5808 5805
5836 5837 5838 5840 5841 5842 5843 5845 5846 5847 5848 5849 5849 5849 5848 5847 5847 5847 5847 5847 5846 5845 5844 5843 5842 5840 5839 5837 5836 5834 5832 5830 5828 5825 5823 5821 5818 5816 5813 5810 5807 5803 5801 5798
5835 5836 5837 5838 5839 5840 5841 5843 5844 5844 5844 5845 5846 5844 5845 5844 5844 5843 5843 5843 5842 5841 5839 5838 5837 5836 5834 5832 5830 5829 5827 5824 5822 5819 5817 5814 5812 5809 5806 5803 5799 5796 5793 5791
5834 5836 5836 5837 5838 5838 5839 5841 5842 5842 5841 5842 5842 5841 5842 5841 5840 5839 5838 5838 5837 5836 5833 5832 5832 5831 5829 5828 5826 5823 5820 5818 5815 5813 5810 5808 5805 5802 5799 5796 5792 5789 5786 5783
5832 5834 5835 5835 5836 5836 5837 5837 5838 5838 5838 5838 5837 5838 5837 5837 5835 5834 5833 5833 5832 5831 5830 5828 5827 5826 5824 5822 5820 5817 5814 5812 5809 5806 5803 5801 5798 5795 5792 5789 5785 5782 5779 5776
5830 5832 5832 5833 5833 5834 5834 5834 5835 5834 5834 5833 5834 5833 5834 5833 5831 5830 5829 5828 5827 5826 5825 5824 5822 5820 5819 5817 5814 5811 5809 5806 5804 5801 5798 5795 5792 5789 5785 5782 5779 5775 5772 5769
5828 5829 5830 5830 5830 5831 5831 5831 5831 5831 5830 5830 5829 5831 5830 5829 5827 5826 5825 5823 5822 5821 5820 5819 5816 5815 5813 5811 5809 5806 5804 5801 5799 5796 5793 5790 5786 5783 5779 5776 5773 5769 5766 5762
5826 5826 5826 5827 5827 5827 5827 5827 5827 5827 5826 5825 5825 5828 5825 5824 5822 5821 5820 5819 5817 5816 5815 5814 5812 5810 5808 5806 5803 5801 5799 5796 5793 5790 5787 5784 5780 5777 5773 5770 5767 5763 5760 5756
5823 5823 5822 5823 5825 5824 5823 5824 5823 5823 5822 5821 5821 5823 5820 5819 5817 5816 5815 5814 5813 5812 5811 5809 5808 5805 5803 5801 5798 5796 5793 5791 5788 5785 5781 5778 5775 5771 5768 5764 5761 5757 5754 5751
5819 5819 5820 5820 5819 5819 5819 5819 5819 5819 5818 5817 5817 5817 5816 5814 5813 5812 5811 5810 5809 5807 5806 5804 5802 5800 5798 5795 5793 5791 5788 5785 5782 5779 5776 5772 5769 5766 5762 5759 5755 5752 5748 5745
5816 5816 5815 5815 5815 5815 5815 5815 5815 5814 5814 5813 5813 5812 5811 5810 5809 5807 5807 5806 5804 5803 5801 5799 5797 5795 5793 5791 5788 5785 5782 5780 5777 5774 5770 5767 5764 5760 5757 5754 5750 5747 5743 5740
5812 5812 5811 5811 5811 5811 5810 5810 5810 5810 5810 5809 5809 5808 5807 5806 5804 5803 5802 5801 5800 5798 5796 5795 5793 5790 5788 5786 5783 5780 5777 5775 5772 5769 5766 5763 5759 5756 5753 5750 5747 5743 5740 5736
5808 5808 5808 5807 5807 5807 5807 5807 5806 5806 5806 5806 5805 5805 5803 5802 5800 5799 5798 5796 5794 5793 5792 5790 5788 5786 5784 5781 5779 5776 5773 5771 5768 5765 5762 5759 5756 5753 5750 5747 5743 5740 5737 5733
5805 5804 5804 5803 5804 5803 5805 5803 5802 5802 5802 5801 5801 5799 5798 5797 5796 5795 5794 5792 5791 5789 5788 5786 5784 5782 5780 5778 5776 5773 5771 5768 5765 5762 5759 5756 5754 5751 5747 5744 5741 5737 5734 5731
5801 5801 5800 5799 5799 5799 5800 5798 5797 5797 5797 5797 5796 5795 5794 5793 5792 5791 5790 5789 5788 5786 5785 5783 5781 5779 5777 5775 5773 5771 5768 5765 5763 5760 5757 5754 5751 5748 5745 5742 5739 5735 5732 5729
5797 5797 5797 5796 5795 5795 5796 5795 5793 5794 5793 5793 5792 5791 5790 5789 5788 5788 5786 5785 5784 5783 5781 5780 5778 5777 5775 5773 5771 5769 5766 5763 5760 5758 5755 5752 5749 5746 5743 5740 5737 5734 5731 5727
5793 5793 5793 5792 5791 5791 5792 5791 5790 5791 5791 5789 5788 5787 5786 5785 5785 5784 5782 5782 5781 5780 5778 5777 5776 5774 5773 5771 5769 5767 5764 5761 5759 5756 5753 5750 5747 5744 5741 5739 5736 5733 5730 5727
5790 5790 5789 5789 5788 5790 5788 5787 5787 5787 5786 5785 5784 5783 5782 5781 5780 5780 5779 5778 5778 5777 5776 5774 5773 5772 5771 5770 5768 5765 5762 5760 5757 5754 5751 5748 5746 5743 5740 5738 5735 5732 5729 5726
5787 5788 5787 5786 5787 5786 5785 5784 5784 5783 5782 5781 5781 5780 5780 5779 5778 5778 5777 5776 5775 5775 5774 5773 5772 5771 5770 5768 5766 5764 5761 5759 5756 5753 5750 5748 5745 5742 5740 5737 5735 5732 5729 5726
5784 5784 5783 5783 5782 5782 5782 5781 5781 5780 5779 5779 5779 5778 5778 5777 5777 5776 5776 5775 5774 5773 5772 5771 5771 5770 5768 5767 5765 5762 5760 5758 5755 5753 5750 5747 5744 5742 5739 5737 5735 5733 5730 5727
5782 5781 5781 5780 5780 5779 5779 5778 5778 5778 5777 5777 5777 5776 5776 5776 5775 5775 5774 5773 5772 5771 5771 5770 5769 5768 5767 5765 5763 5761 5759 5757 5755 5752 5750 5747 5745 5742 5740 5737 5735 5733 5731 5728
5779 5779 5779 5778 5778 5778 5778 5777 5777 5776 5776 5776 5776 5775 5775 5775 5774 5774 5773 5772 5771 5770 5769 5769 5768 5767 5766 5764 5762 5760 5759 5757 5754 5752 5749 5747 5745 5743 5740 5738 5736 5733 5731 5729